Location: Home
(51.5204°N, 2.5456°W)
Time: 06:33:38
(UTC+00:00)

STRAND 1 - Pass Details

Date: 13 December 2019
Orbit: 768 x 781 km, 98.5° (Epoch: 27 January)

Event Time Altitude Azimuth Distance (km) Brightness Sun altitude
Rises 05:36:56 0° 135° (SE) 3,247 ? -22.0°
Reaches altitude 10° 05:39:24 10° 126° (SE) 2,322 ? -21.7°
Maximum altitude 05:43:58 34° 63° (ENE) 1,261 ? -21.0°
Drops below altitude 10° 05:48:33 10° 360° (N) 2,329 ? -20.3°
Enters shadow 05:50:39 - 352° (N) 3,116 ? -19.9°
